Index of /20260505/WXO-DD/model_rdps/10km/12/040
Name Last modified Size Description
Parent Directory -
20260505T12Z_MSC_RDPS_AbsoluteVorticity_IsbL-0250_RLatLon0.09_PT040H.grib2 2026-05-05 14:50 591K
20260505T12Z_MSC_RDPS_AbsoluteVorticity_IsbL-0500_RLatLon0.09_PT040H.grib2 2026-05-05 14:50 550K
20260505T12Z_MSC_RDPS_AbsoluteVorticity_IsbL-0700_RLatLon0.09_PT040H.grib2 2026-05-05 14:50 611K
20260505T12Z_MSC_RDPS_AbsoluteVorticity_IsbL-0850_RLatLon0.09_PT040H.grib2 2026-05-05 14:50 778K
20260505T12Z_MSC_RDPS_AirTemp_AGL-120m_RLatLon0.09_PT040H.grib2 2026-05-05 14:50 367K
20260505T12Z_MSC_RDPS_AirTemp_AGL-2m_RLatLon0.09_PT040H.grib2 2026-05-05 14:50 620K
20260505T12Z_MSC_RDPS_AirTemp_AGL-40m_RLatLon0.09_PT040H.grib2 2026-05-05 14:50 384K
20260505T12Z_MSC_RDPS_AirTemp_AGL-80m_RLatLon0.09_PT040H.grib2 2026-05-05 14:50 374K
20260505T12Z_MSC_RDPS_AirTemp_IsbL-0001_RLatLon0.09_PT040H.grib2 2026-05-05 14:50 300K
20260505T12Z_MSC_RDPS_AirTemp_IsbL-0005_RLatLon0.09_PT040H.grib2 2026-05-05 14:50 286K
20260505T12Z_MSC_RDPS_AirTemp_IsbL-0010_RLatLon0.09_PT040H.grib2 2026-05-05 14:50 388K
20260505T12Z_MSC_RDPS_AirTemp_IsbL-0020_RLatLon0.09_PT040H.grib2 2026-05-05 14:50 318K
20260505T12Z_MSC_RDPS_AirTemp_IsbL-0030_RLatLon0.09_PT040H.grib2 2026-05-05 14:50 334K
20260505T12Z_MSC_RDPS_AirTemp_IsbL-0050_RLatLon0.09_PT040H.grib2 2026-05-05 14:50 310K
20260505T12Z_MSC_RDPS_AirTemp_IsbL-0100_RLatLon0.09_PT040H.grib2 2026-05-05 14:50 419K
20260505T12Z_MSC_RDPS_AirTemp_IsbL-0150_RLatLon0.09_PT040H.grib2 2026-05-05 14:50 406K
20260505T12Z_MSC_RDPS_AirTemp_IsbL-0175_RLatLon0.09_PT040H.grib2 2026-05-05 14:50 399K
20260505T12Z_MSC_RDPS_AirTemp_IsbL-0200_RLatLon0.09_PT040H.grib2 2026-05-05 14:50 408K
20260505T12Z_MSC_RDPS_AirTemp_IsbL-0225_RLatLon0.09_PT040H.grib2 2026-05-05 14:50 409K
20260505T12Z_MSC_RDPS_AirTemp_IsbL-0250_RLatLon0.09_PT040H.grib2 2026-05-05 14:50 417K
20260505T12Z_MSC_RDPS_AirTemp_IsbL-0275_RLatLon0.09_PT040H.grib2 2026-05-05 14:50 396K
20260505T12Z_MSC_RDPS_AirTemp_IsbL-0300_RLatLon0.09_PT040H.grib2 2026-05-05 14:50 402K
20260505T12Z_MSC_RDPS_AirTemp_IsbL-0350_RLatLon0.09_PT040H.grib2 2026-05-05 14:50 417K
20260505T12Z_MSC_RDPS_AirTemp_IsbL-0400_RLatLon0.09_PT040H.grib2 2026-05-05 14:50 420K
20260505T12Z_MSC_RDPS_AirTemp_IsbL-0450_RLatLon0.09_PT040H.grib2 2026-05-05 14:50 428K
20260505T12Z_MSC_RDPS_AirTemp_IsbL-0500_RLatLon0.09_PT040H.grib2 2026-05-05 14:50 439K
20260505T12Z_MSC_RDPS_AirTemp_IsbL-0550_RLatLon0.09_PT040H.grib2 2026-05-05 14:50 419K
20260505T12Z_MSC_RDPS_AirTemp_IsbL-0600_RLatLon0.09_PT040H.grib2 2026-05-05 14:50 435K
20260505T12Z_MSC_RDPS_AirTemp_IsbL-0650_RLatLon0.09_PT040H.grib2 2026-05-05 14:50 450K
20260505T12Z_MSC_RDPS_AirTemp_IsbL-0700_RLatLon0.09_PT040H.grib2 2026-05-05 14:50 475K
20260505T12Z_MSC_RDPS_AirTemp_IsbL-0750_RLatLon0.09_PT040H.grib2 2026-05-05 14:50 515K
20260505T12Z_MSC_RDPS_AirTemp_IsbL-0800_RLatLon0.09_PT040H.grib2 2026-05-05 14:50 448K
20260505T12Z_MSC_RDPS_AirTemp_IsbL-0850_RLatLon0.09_PT040H.grib2 2026-05-05 14:50 494K
20260505T12Z_MSC_RDPS_AirTemp_IsbL-0875_RLatLon0.09_PT040H.grib2 2026-05-05 14:50 512K
20260505T12Z_MSC_RDPS_AirTemp_IsbL-0900_RLatLon0.09_PT040H.grib2 2026-05-05 14:50 520K
20260505T12Z_MSC_RDPS_AirTemp_IsbL-0925_RLatLon0.09_PT040H.grib2 2026-05-05 14:50 519K
20260505T12Z_MSC_RDPS_AirTemp_IsbL-0950_RLatLon0.09_PT040H.grib2 2026-05-05 14:50 514K
20260505T12Z_MSC_RDPS_AirTemp_IsbL-0970_RLatLon0.09_PT040H.grib2 2026-05-05 14:50 510K
20260505T12Z_MSC_RDPS_AirTemp_IsbL-0985_RLatLon0.09_PT040H.grib2 2026-05-05 14:50 498K
20260505T12Z_MSC_RDPS_AirTemp_IsbL-1000_RLatLon0.09_PT040H.grib2 2026-05-05 14:50 478K
20260505T12Z_MSC_RDPS_AirTemp_IsbL-1015_RLatLon0.09_PT040H.grib2 2026-05-05 14:50 480K
20260505T12Z_MSC_RDPS_Albedo_Sfc_RLatLon0.09_PT040H.grib2 2026-05-05 14:50 157K
20260505T12Z_MSC_RDPS_CAPE_Sfc_RLatLon0.09_PT040H.grib2 2026-05-05 14:50 1.7M
20260505T12Z_MSC_RDPS_CIN_Sfc_RLatLon0.09_PT040H.grib2 2026-05-05 14:50 1.2M
20260505T12Z_MSC_RDPS_CloudWater_EAtm_RLatLon0.09_PT040H.grib2 2026-05-05 14:50 221K
20260505T12Z_MSC_RDPS_ConvectivePrecip-Accum_Sfc_RLatLon0.09_PT040H.grib2 2026-05-05 14:50 1.0M
20260505T12Z_MSC_RDPS_DewPointDepression_AGL-2m_RLatLon0.09_PT040H.grib2 2026-05-05 14:50 399K
20260505T12Z_MSC_RDPS_DewPointDepression_IsbL-0001_RLatLon0.09_PT040H.grib2 2026-05-05 14:50 193
20260505T12Z_MSC_RDPS_DewPointDepression_IsbL-0005_RLatLon0.09_PT040H.grib2 2026-05-05 14:50 193
20260505T12Z_MSC_RDPS_DewPointDepression_IsbL-0010_RLatLon0.09_PT040H.grib2 2026-05-05 14:50 193
20260505T12Z_MSC_RDPS_DewPointDepression_IsbL-0020_RLatLon0.09_PT040H.grib2 2026-05-05 14:50 193
20260505T12Z_MSC_RDPS_DewPointDepression_IsbL-0030_RLatLon0.09_PT040H.grib2 2026-05-05 14:50 193
20260505T12Z_MSC_RDPS_DewPointDepression_IsbL-0050_RLatLon0.09_PT040H.grib2 2026-05-05 14:50 80K
20260505T12Z_MSC_RDPS_DewPointDepression_IsbL-0100_RLatLon0.09_PT040H.grib2 2026-05-05 14:50 113K
20260505T12Z_MSC_RDPS_DewPointDepression_IsbL-0150_RLatLon0.09_PT040H.grib2 2026-05-05 14:50 138K
20260505T12Z_MSC_RDPS_DewPointDepression_IsbL-0175_RLatLon0.09_PT040H.grib2 2026-05-05 14:50 177K
20260505T12Z_MSC_RDPS_DewPointDepression_IsbL-0200_RLatLon0.09_PT040H.grib2 2026-05-05 14:50 217K
20260505T12Z_MSC_RDPS_DewPointDepression_IsbL-0225_RLatLon0.09_PT040H.grib2 2026-05-05 14:50 248K
20260505T12Z_MSC_RDPS_DewPointDepression_IsbL-0250_RLatLon0.09_PT040H.grib2 2026-05-05 14:50 292K
20260505T12Z_MSC_RDPS_DewPointDepression_IsbL-0275_RLatLon0.09_PT040H.grib2 2026-05-05 14:50 304K
20260505T12Z_MSC_RDPS_DewPointDepression_IsbL-0300_RLatLon0.09_PT040H.grib2 2026-05-05 14:50 322K
20260505T12Z_MSC_RDPS_DewPointDepression_IsbL-0350_RLatLon0.09_PT040H.grib2 2026-05-05 14:50 330K
20260505T12Z_MSC_RDPS_DewPointDepression_IsbL-0400_RLatLon0.09_PT040H.grib2 2026-05-05 14:50 339K
20260505T12Z_MSC_RDPS_DewPointDepression_IsbL-0450_RLatLon0.09_PT040H.grib2 2026-05-05 14:50 345K
20260505T12Z_MSC_RDPS_DewPointDepression_IsbL-0500_RLatLon0.09_PT040H.grib2 2026-05-05 14:50 346K
20260505T12Z_MSC_RDPS_DewPointDepression_IsbL-0550_RLatLon0.09_PT040H.grib2 2026-05-05 14:50 355K
20260505T12Z_MSC_RDPS_DewPointDepression_IsbL-0600_RLatLon0.09_PT040H.grib2 2026-05-05 14:50 364K
20260505T12Z_MSC_RDPS_DewPointDepression_IsbL-0650_RLatLon0.09_PT040H.grib2 2026-05-05 14:50 365K
20260505T12Z_MSC_RDPS_DewPointDepression_IsbL-0700_RLatLon0.09_PT040H.grib2 2026-05-05 14:50 375K
20260505T12Z_MSC_RDPS_DewPointDepression_IsbL-0750_RLatLon0.09_PT040H.grib2 2026-05-05 14:50 398K
20260505T12Z_MSC_RDPS_DewPointDepression_IsbL-0800_RLatLon0.09_PT040H.grib2 2026-05-05 14:50 440K
20260505T12Z_MSC_RDPS_DewPointDepression_IsbL-0850_RLatLon0.09_PT040H.grib2 2026-05-05 14:50 470K
20260505T12Z_MSC_RDPS_DewPointDepression_IsbL-0875_RLatLon0.09_PT040H.grib2 2026-05-05 14:50 472K
20260505T12Z_MSC_RDPS_DewPointDepression_IsbL-0900_RLatLon0.09_PT040H.grib2 2026-05-05 14:50 464K
20260505T12Z_MSC_RDPS_DewPointDepression_IsbL-0925_RLatLon0.09_PT040H.grib2 2026-05-05 14:50 454K
20260505T12Z_MSC_RDPS_DewPointDepression_IsbL-0950_RLatLon0.09_PT040H.grib2 2026-05-05 14:50 443K
20260505T12Z_MSC_RDPS_DewPointDepression_IsbL-0970_RLatLon0.09_PT040H.grib2 2026-05-05 14:50 433K
20260505T12Z_MSC_RDPS_DewPointDepression_IsbL-0985_RLatLon0.09_PT040H.grib2 2026-05-05 14:50 429K
20260505T12Z_MSC_RDPS_DewPointDepression_IsbL-1000_RLatLon0.09_PT040H.grib2 2026-05-05 14:50 424K
20260505T12Z_MSC_RDPS_DewPointDepression_IsbL-1015_RLatLon0.09_PT040H.grib2 2026-05-05 14:50 414K
20260505T12Z_MSC_RDPS_DewPoint_AGL-2m_RLatLon0.09_PT040H.grib2 2026-05-05 14:50 303K
20260505T12Z_MSC_RDPS_DownwardLongwaveRadiationFlux-Accum_Sfc_RLatLon0.09_PT040H.grib2 2026-05-05 14:50 385K
20260505T12Z_MSC_RDPS_DownwardShortwaveRadiationFlux-Accum_NTAtm_RLatLon0.09_PT040H.grib2 2026-05-05 14:50 148K
20260505T12Z_MSC_RDPS_DownwardShortwaveRadiationFlux-Accum_Sfc_RLatLon0.09_PT040H.grib2 2026-05-05 14:50 554K
20260505T12Z_MSC_RDPS_FreezingRain-Accum1h_Sfc_RLatLon0.09_PT040H.grib2 2026-05-05 14:50 33K
20260505T12Z_MSC_RDPS_FreezingRain-Accum_Sfc_RLatLon0.09_PT040H.grib2 2026-05-05 14:50 145K
20260505T12Z_MSC_RDPS_GeopotentialHeight_IsbL-0001_RLatLon0.09_PT040H.grib2 2026-05-05 14:50 307K
20260505T12Z_MSC_RDPS_GeopotentialHeight_IsbL-0005_RLatLon0.09_PT040H.grib2 2026-05-05 14:50 333K
20260505T12Z_MSC_RDPS_GeopotentialHeight_IsbL-0010_RLatLon0.09_PT040H.grib2 2026-05-05 14:50 334K
20260505T12Z_MSC_RDPS_GeopotentialHeight_IsbL-0020_RLatLon0.09_PT040H.grib2 2026-05-05 14:50 300K
20260505T12Z_MSC_RDPS_GeopotentialHeight_IsbL-0030_RLatLon0.09_PT040H.grib2 2026-05-05 14:50 303K
20260505T12Z_MSC_RDPS_GeopotentialHeight_IsbL-0050_RLatLon0.09_PT040H.grib2 2026-05-05 14:50 304K
20260505T12Z_MSC_RDPS_GeopotentialHeight_IsbL-0100_RLatLon0.09_PT040H.grib2 2026-05-05 14:50 284K
20260505T12Z_MSC_RDPS_GeopotentialHeight_IsbL-0150_RLatLon0.09_PT040H.grib2 2026-05-05 14:50 226K
20260505T12Z_MSC_RDPS_GeopotentialHeight_IsbL-0175_RLatLon0.09_PT040H.grib2 2026-05-05 14:50 229K
20260505T12Z_MSC_RDPS_GeopotentialHeight_IsbL-0200_RLatLon0.09_PT040H.grib2 2026-05-05 14:50 232K
20260505T12Z_MSC_RDPS_GeopotentialHeight_IsbL-0225_RLatLon0.09_PT040H.grib2 2026-05-05 14:50 264K
20260505T12Z_MSC_RDPS_GeopotentialHeight_IsbL-0250_RLatLon0.09_PT040H.grib2 2026-05-05 14:50 265K
20260505T12Z_MSC_RDPS_GeopotentialHeight_IsbL-0275_RLatLon0.09_PT040H.grib2 2026-05-05 14:50 234K
20260505T12Z_MSC_RDPS_GeopotentialHeight_IsbL-0300_RLatLon0.09_PT040H.grib2 2026-05-05 14:50 234K
20260505T12Z_MSC_RDPS_GeopotentialHeight_IsbL-0350_RLatLon0.09_PT040H.grib2 2026-05-05 14:50 232K
20260505T12Z_MSC_RDPS_GeopotentialHeight_IsbL-0400_RLatLon0.09_PT040H.grib2 2026-05-05 14:50 228K
20260505T12Z_MSC_RDPS_GeopotentialHeight_IsbL-0450_RLatLon0.09_PT040H.grib2 2026-05-05 14:50 295K
20260505T12Z_MSC_RDPS_GeopotentialHeight_IsbL-0500_RLatLon0.09_PT040H.grib2 2026-05-05 14:50 289K
20260505T12Z_MSC_RDPS_GeopotentialHeight_IsbL-0550_RLatLon0.09_PT040H.grib2 2026-05-05 14:50 286K
20260505T12Z_MSC_RDPS_GeopotentialHeight_IsbL-0600_RLatLon0.09_PT040H.grib2 2026-05-05 14:50 283K
20260505T12Z_MSC_RDPS_GeopotentialHeight_IsbL-0650_RLatLon0.09_PT040H.grib2 2026-05-05 14:50 253K
20260505T12Z_MSC_RDPS_GeopotentialHeight_IsbL-0700_RLatLon0.09_PT040H.grib2 2026-05-05 14:50 333K
20260505T12Z_MSC_RDPS_GeopotentialHeight_IsbL-0750_RLatLon0.09_PT040H.grib2 2026-05-05 14:50 335K
20260505T12Z_MSC_RDPS_GeopotentialHeight_IsbL-0800_RLatLon0.09_PT040H.grib2 2026-05-05 14:50 375K
20260505T12Z_MSC_RDPS_GeopotentialHeight_IsbL-0850_RLatLon0.09_PT040H.grib2 2026-05-05 14:50 384K
20260505T12Z_MSC_RDPS_GeopotentialHeight_IsbL-0875_RLatLon0.09_PT040H.grib2 2026-05-05 14:50 387K
20260505T12Z_MSC_RDPS_GeopotentialHeight_IsbL-0900_RLatLon0.09_PT040H.grib2 2026-05-05 14:50 390K
20260505T12Z_MSC_RDPS_GeopotentialHeight_IsbL-0925_RLatLon0.09_PT040H.grib2 2026-05-05 14:50 393K
20260505T12Z_MSC_RDPS_GeopotentialHeight_IsbL-0950_RLatLon0.09_PT040H.grib2 2026-05-05 14:50 396K
20260505T12Z_MSC_RDPS_GeopotentialHeight_IsbL-0970_RLatLon0.09_PT040H.grib2 2026-05-05 14:50 366K
20260505T12Z_MSC_RDPS_GeopotentialHeight_IsbL-0985_RLatLon0.09_PT040H.grib2 2026-05-05 14:50 375K
20260505T12Z_MSC_RDPS_GeopotentialHeight_IsbL-1000_RLatLon0.09_PT040H.grib2 2026-05-05 14:50 386K
20260505T12Z_MSC_RDPS_GeopotentialHeight_IsbL-1015_RLatLon0.09_PT040H.grib2 2026-05-05 14:50 400K
20260505T12Z_MSC_RDPS_Humidex_Sfc_RLatLon0.09_PT040H.grib2 2026-05-05 14:50 2.4M
20260505T12Z_MSC_RDPS_IcePellets-Accum1h_Sfc_RLatLon0.09_PT040H.grib2 2026-05-05 14:50 4.5K
20260505T12Z_MSC_RDPS_IcePellets-Accum_Sfc_RLatLon0.09_PT040H.grib2 2026-05-05 14:50 27K
20260505T12Z_MSC_RDPS_KIndex_Sfc_RLatLon0.09_PT040H.grib2 2026-05-05 14:50 2.5M
20260505T12Z_MSC_RDPS_LatentHeatNetFlux_Sfc_RLatLon0.09_PT040H.grib2 2026-05-05 14:50 313K
20260505T12Z_MSC_RDPS_LiftedIndex-MU-VT_IsbL-0500_RLatLon0.09_PT040H.grib2 2026-05-05 14:50 2.4M
20260505T12Z_MSC_RDPS_NetLongwaveRadiationFlux-Accum_Sfc_RLatLon0.09_PT040H.grib2 2026-05-05 14:50 521K
20260505T12Z_MSC_RDPS_NetShortwaveRadiationFlux-Accum_Sfc_RLatLon0.09_PT040H.grib2 2026-05-05 14:50 550K
20260505T12Z_MSC_RDPS_PlanetaryBoundaryLayerHeight_Sfc_RLatLon0.09_PT040H.grib2 2026-05-05 14:50 1.1M
20260505T12Z_MSC_RDPS_Precip-Accum1h_Sfc_RLatLon0.09_PT040H.grib2 2026-05-05 14:50 1.2M
20260505T12Z_MSC_RDPS_Precip-Accum_Sfc_RLatLon0.09_PT040H.grib2 2026-05-05 14:50 2.0M
20260505T12Z_MSC_RDPS_PrecipRate_Sfc_RLatLon0.09_PT040H.grib2 2026-05-05 14:50 182K
20260505T12Z_MSC_RDPS_PrecipType-Instant_Sfc_RLatLon0.09_PT040H.grib2 2026-05-05 14:50 577K
20260505T12Z_MSC_RDPS_Pressure-Trend3h_Sfc_RLatLon0.09_PT040H.grib2 2026-05-05 14:50 1.2M
20260505T12Z_MSC_RDPS_Pressure_MSL_RLatLon0.09_PT040H.grib2 2026-05-05 14:50 287K
20260505T12Z_MSC_RDPS_Pressure_PVU-1.5_RLatLon0.09_PT040H.grib2 2026-05-05 14:50 2.5M
20260505T12Z_MSC_RDPS_Pressure_PVU-1_RLatLon0.09_PT040H.grib2 2026-05-05 14:50 2.4M
20260505T12Z_MSC_RDPS_Pressure_PVU-2_RLatLon0.09_PT040H.grib2 2026-05-05 14:50 2.4M
20260505T12Z_MSC_RDPS_Pressure_Sfc_RLatLon0.09_PT040H.grib2 2026-05-05 14:50 496K
20260505T12Z_MSC_RDPS_RadiativeTemp_Sfc_RLatLon0.09_PT040H.grib2 2026-05-05 14:50 299K
20260505T12Z_MSC_RDPS_Rain-Accum1h_Sfc_RLatLon0.09_PT040H.grib2 2026-05-05 14:50 605K
20260505T12Z_MSC_RDPS_Rain-Accum_Sfc_RLatLon0.09_PT040H.grib2 2026-05-05 14:50 1.6M
20260505T12Z_MSC_RDPS_RelativeHumidity_AGL-2m_RLatLon0.09_PT040H.grib2 2026-05-05 14:50 1.0M
20260505T12Z_MSC_RDPS_RelativeHumidity_IsbL-0010_RLatLon0.09_PT040H.grib2 2026-05-05 14:50 585K
20260505T12Z_MSC_RDPS_RelativeHumidity_IsbL-0020_RLatLon0.09_PT040H.grib2 2026-05-05 14:50 657K
20260505T12Z_MSC_RDPS_RelativeHumidity_IsbL-0030_RLatLon0.09_PT040H.grib2 2026-05-05 14:50 599K
20260505T12Z_MSC_RDPS_RelativeHumidity_IsbL-0050_RLatLon0.09_PT040H.grib2 2026-05-05 14:50 354K
20260505T12Z_MSC_RDPS_RelativeHumidity_IsbL-0100_RLatLon0.09_PT040H.grib2 2026-05-05 14:50 274K
20260505T12Z_MSC_RDPS_RelativeHumidity_IsbL-0150_RLatLon0.09_PT040H.grib2 2026-05-05 14:50 409K
20260505T12Z_MSC_RDPS_RelativeHumidity_IsbL-0175_RLatLon0.09_PT040H.grib2 2026-05-05 14:50 463K
20260505T12Z_MSC_RDPS_RelativeHumidity_IsbL-0200_RLatLon0.09_PT040H.grib2 2026-05-05 14:50 537K
20260505T12Z_MSC_RDPS_RelativeHumidity_IsbL-0225_RLatLon0.09_PT040H.grib2 2026-05-05 14:50 601K
20260505T12Z_MSC_RDPS_RelativeHumidity_IsbL-0250_RLatLon0.09_PT040H.grib2 2026-05-05 14:50 663K
20260505T12Z_MSC_RDPS_RelativeHumidity_IsbL-0275_RLatLon0.09_PT040H.grib2 2026-05-05 14:50 691K
20260505T12Z_MSC_RDPS_RelativeHumidity_IsbL-0300_RLatLon0.09_PT040H.grib2 2026-05-05 14:50 738K
20260505T12Z_MSC_RDPS_RelativeHumidity_IsbL-0350_RLatLon0.09_PT040H.grib2 2026-05-05 14:50 763K
20260505T12Z_MSC_RDPS_RelativeHumidity_IsbL-0400_RLatLon0.09_PT040H.grib2 2026-05-05 14:50 780K
20260505T12Z_MSC_RDPS_RelativeHumidity_IsbL-0450_RLatLon0.09_PT040H.grib2 2026-05-05 14:50 788K
20260505T12Z_MSC_RDPS_RelativeHumidity_IsbL-0500_RLatLon0.09_PT040H.grib2 2026-05-05 14:50 789K
20260505T12Z_MSC_RDPS_RelativeHumidity_IsbL-0550_RLatLon0.09_PT040H.grib2 2026-05-05 14:50 805K
20260505T12Z_MSC_RDPS_RelativeHumidity_IsbL-0600_RLatLon0.09_PT040H.grib2 2026-05-05 14:50 824K
20260505T12Z_MSC_RDPS_RelativeHumidity_IsbL-0650_RLatLon0.09_PT040H.grib2 2026-05-05 14:50 844K
20260505T12Z_MSC_RDPS_RelativeHumidity_IsbL-0700_RLatLon0.09_PT040H.grib2 2026-05-05 14:50 859K
20260505T12Z_MSC_RDPS_RelativeHumidity_IsbL-0750_RLatLon0.09_PT040H.grib2 2026-05-05 14:50 912K
20260505T12Z_MSC_RDPS_RelativeHumidity_IsbL-0800_RLatLon0.09_PT040H.grib2 2026-05-05 14:50 1.0M
20260505T12Z_MSC_RDPS_RelativeHumidity_IsbL-0850_RLatLon0.09_PT040H.grib2 2026-05-05 14:50 1.0M
20260505T12Z_MSC_RDPS_RelativeHumidity_IsbL-0875_RLatLon0.09_PT040H.grib2 2026-05-05 14:50 1.0M
20260505T12Z_MSC_RDPS_RelativeHumidity_IsbL-0900_RLatLon0.09_PT040H.grib2 2026-05-05 14:50 1.1M
20260505T12Z_MSC_RDPS_RelativeHumidity_IsbL-0925_RLatLon0.09_PT040H.grib2 2026-05-05 14:50 1.1M
20260505T12Z_MSC_RDPS_RelativeHumidity_IsbL-0950_RLatLon0.09_PT040H.grib2 2026-05-05 14:50 1.1M
20260505T12Z_MSC_RDPS_RelativeHumidity_IsbL-0970_RLatLon0.09_PT040H.grib2 2026-05-05 14:50 1.0M
20260505T12Z_MSC_RDPS_RelativeHumidity_IsbL-0985_RLatLon0.09_PT040H.grib2 2026-05-05 14:50 1.0M
20260505T12Z_MSC_RDPS_RelativeHumidity_IsbL-1000_RLatLon0.09_PT040H.grib2 2026-05-05 14:50 1.0M
20260505T12Z_MSC_RDPS_RelativeHumidity_IsbL-1015_RLatLon0.09_PT040H.grib2 2026-05-05 14:50 1.0M
20260505T12Z_MSC_RDPS_Runoff-Accum_Sfc_RLatLon0.09_PT040H.grib2 2026-05-05 14:50 52K
20260505T12Z_MSC_RDPS_SWEATIndex_Sfc_RLatLon0.09_PT040H.grib2 2026-05-05 14:50 2.4M
20260505T12Z_MSC_RDPS_SeeingIndex_EAtm_RLatLon0.09_PT040H.grib2 2026-05-05 14:50 1.0M
20260505T12Z_MSC_RDPS_SensibleHeatNetFlux_Sfc_RLatLon0.09_PT040H.grib2 2026-05-05 14:50 283K
20260505T12Z_MSC_RDPS_ShowalterIndex_IsbL-0500_RLatLon0.09_PT040H.grib2 2026-05-05 14:50 2.6M
20260505T12Z_MSC_RDPS_SkyTransparencyIndex_EAtm_RLatLon0.09_PT040H.grib2 2026-05-05 14:50 722K
20260505T12Z_MSC_RDPS_Snow-Accum1h_Sfc_RLatLon0.09_PT040H.grib2 2026-05-05 14:50 444K
20260505T12Z_MSC_RDPS_Snow-Accum_Sfc_RLatLon0.09_PT040H.grib2 2026-05-05 14:50 752K
20260505T12Z_MSC_RDPS_SnowDensity_Sfc_RLatLon0.09_PT040H.grib2 2026-05-05 14:50 175K
20260505T12Z_MSC_RDPS_SnowDepth_Sfc_RLatLon0.09_PT040H.grib2 2026-05-05 14:50 648K
20260505T12Z_MSC_RDPS_SoilTemp_DBS-0to10cm_RLatLon0.09_PT040H.grib2 2026-05-05 14:50 239K
20260505T12Z_MSC_RDPS_SoilTemp_Sfc_RLatLon0.09_PT040H.grib2 2026-05-05 14:50 266K
20260505T12Z_MSC_RDPS_SoilVolumetricIceContent_Sfc_RLatLon0.09_PT040H.grib2 2026-05-05 14:50 150K
20260505T12Z_MSC_RDPS_SoilVolumetricWaterContent_DBS-0to10cm_RLatLon0.09_PT040H.grib2 2026-05-05 14:50 282K
20260505T12Z_MSC_RDPS_SoilVolumetricWaterContent_DBS-0to1cm_RLatLon0.09_PT040H.grib2 2026-05-05 14:50 343K
20260505T12Z_MSC_RDPS_SpecificHumidity_AGL-120m_RLatLon0.09_PT040H.grib2 2026-05-05 14:50 487K
20260505T12Z_MSC_RDPS_SpecificHumidity_AGL-2m_RLatLon0.09_PT040H.grib2 2026-05-05 14:50 653K
20260505T12Z_MSC_RDPS_SpecificHumidity_AGL-40m_RLatLon0.09_PT040H.grib2 2026-05-05 14:50 494K
20260505T12Z_MSC_RDPS_SpecificHumidity_AGL-80m_RLatLon0.09_PT040H.grib2 2026-05-05 14:50 489K
20260505T12Z_MSC_RDPS_SpecificHumidity_IsbL-0001_RLatLon0.09_PT040H.grib2 2026-05-05 14:50 362K
20260505T12Z_MSC_RDPS_SpecificHumidity_IsbL-0005_RLatLon0.09_PT040H.grib2 2026-05-05 14:50 374K
20260505T12Z_MSC_RDPS_SpecificHumidity_IsbL-0010_RLatLon0.09_PT040H.grib2 2026-05-05 14:50 408K
20260505T12Z_MSC_RDPS_SpecificHumidity_IsbL-0020_RLatLon0.09_PT040H.grib2 2026-05-05 14:50 386K
20260505T12Z_MSC_RDPS_SpecificHumidity_IsbL-0030_RLatLon0.09_PT040H.grib2 2026-05-05 14:50 369K
20260505T12Z_MSC_RDPS_SpecificHumidity_IsbL-0050_RLatLon0.09_PT040H.grib2 2026-05-05 14:50 478K
20260505T12Z_MSC_RDPS_SpecificHumidity_IsbL-0100_RLatLon0.09_PT040H.grib2 2026-05-05 14:50 446K
20260505T12Z_MSC_RDPS_SpecificHumidity_IsbL-0150_RLatLon0.09_PT040H.grib2 2026-05-05 14:50 454K
20260505T12Z_MSC_RDPS_SpecificHumidity_IsbL-0175_RLatLon0.09_PT040H.grib2 2026-05-05 14:50 434K
20260505T12Z_MSC_RDPS_SpecificHumidity_IsbL-0200_RLatLon0.09_PT040H.grib2 2026-05-05 14:50 446K
20260505T12Z_MSC_RDPS_SpecificHumidity_IsbL-0225_RLatLon0.09_PT040H.grib2 2026-05-05 14:50 443K
20260505T12Z_MSC_RDPS_SpecificHumidity_IsbL-0250_RLatLon0.09_PT040H.grib2 2026-05-05 14:50 543K
20260505T12Z_MSC_RDPS_SpecificHumidity_IsbL-0275_RLatLon0.09_PT040H.grib2 2026-05-05 14:50 462K
20260505T12Z_MSC_RDPS_SpecificHumidity_IsbL-0300_RLatLon0.09_PT040H.grib2 2026-05-05 14:50 562K
20260505T12Z_MSC_RDPS_SpecificHumidity_IsbL-0350_RLatLon0.09_PT040H.grib2 2026-05-05 14:50 531K
20260505T12Z_MSC_RDPS_SpecificHumidity_IsbL-0400_RLatLon0.09_PT040H.grib2 2026-05-05 14:50 515K
20260505T12Z_MSC_RDPS_SpecificHumidity_IsbL-0450_RLatLon0.09_PT040H.grib2 2026-05-05 14:50 569K
20260505T12Z_MSC_RDPS_SpecificHumidity_IsbL-0500_RLatLon0.09_PT040H.grib2 2026-05-05 14:50 500K
20260505T12Z_MSC_RDPS_SpecificHumidity_IsbL-0550_RLatLon0.09_PT040H.grib2 2026-05-05 14:50 555K
20260505T12Z_MSC_RDPS_SpecificHumidity_IsbL-0600_RLatLon0.09_PT040H.grib2 2026-05-05 14:50 624K
20260505T12Z_MSC_RDPS_SpecificHumidity_IsbL-0650_RLatLon0.09_PT040H.grib2 2026-05-05 14:50 540K
20260505T12Z_MSC_RDPS_SpecificHumidity_IsbL-0700_RLatLon0.09_PT040H.grib2 2026-05-05 14:50 582K
20260505T12Z_MSC_RDPS_SpecificHumidity_IsbL-0750_RLatLon0.09_PT040H.grib2 2026-05-05 14:50 639K
20260505T12Z_MSC_RDPS_SpecificHumidity_IsbL-0800_RLatLon0.09_PT040H.grib2 2026-05-05 14:50 726K
20260505T12Z_MSC_RDPS_SpecificHumidity_IsbL-0850_RLatLon0.09_PT040H.grib2 2026-05-05 14:50 800K
20260505T12Z_MSC_RDPS_SpecificHumidity_IsbL-0875_RLatLon0.09_PT040H.grib2 2026-05-05 14:50 828K
20260505T12Z_MSC_RDPS_SpecificHumidity_IsbL-0900_RLatLon0.09_PT040H.grib2 2026-05-05 14:50 843K
20260505T12Z_MSC_RDPS_SpecificHumidity_IsbL-0925_RLatLon0.09_PT040H.grib2 2026-05-05 14:50 848K
20260505T12Z_MSC_RDPS_SpecificHumidity_IsbL-0950_RLatLon0.09_PT040H.grib2 2026-05-05 14:50 705K
20260505T12Z_MSC_RDPS_SpecificHumidity_IsbL-0970_RLatLon0.09_PT040H.grib2 2026-05-05 14:50 693K
20260505T12Z_MSC_RDPS_SpecificHumidity_IsbL-0985_RLatLon0.09_PT040H.grib2 2026-05-05 14:50 685K
20260505T12Z_MSC_RDPS_SpecificHumidity_IsbL-1000_RLatLon0.09_PT040H.grib2 2026-05-05 14:50 678K
20260505T12Z_MSC_RDPS_SpecificHumidity_IsbL-1015_RLatLon0.09_PT040H.grib2 2026-05-05 14:50 667K
20260505T12Z_MSC_RDPS_SpecificHumidity_Sfc_RLatLon0.09_PT040H.grib2 2026-05-05 14:50 314K
20260505T12Z_MSC_RDPS_StormRelativeHelicity_EtaL-10000_RLatLon0.09_PT040H.grib2 2026-05-05 14:50 1.1M
20260505T12Z_MSC_RDPS_StormSeverityIndex_EtaL-10000_RLatLon0.09_PT040H.grib2 2026-05-05 14:50 1.2M
20260505T12Z_MSC_RDPS_Thickness_IsbL-0850to0700_RLatLon0.09_PT040H.grib2 2026-05-05 14:50 172K
20260505T12Z_MSC_RDPS_Thickness_IsbL-1000to0500_RLatLon0.09_PT040H.grib2 2026-05-05 14:50 191K
20260505T12Z_MSC_RDPS_Thickness_IsbL-1000to0850_RLatLon0.09_PT040H.grib2 2026-05-05 14:50 255K
20260505T12Z_MSC_RDPS_TotalCloudCover_Sfc_RLatLon0.09_PT040H.grib2 2026-05-05 14:50 659K
20260505T12Z_MSC_RDPS_TotalTotalsIndex_Sfc_RLatLon0.09_PT040H.grib2 2026-05-05 14:50 2.4M
20260505T12Z_MSC_RDPS_UVIndex-ClearSky_Sfc_RLatLon0.09_PT040H.grib2 2026-05-05 14:50 87K
20260505T12Z_MSC_RDPS_UVIndex_Sfc_RLatLon0.09_PT040H.grib2 2026-05-05 14:50 214K
20260505T12Z_MSC_RDPS_UpwardLongwaveRadiationFlux_NTAtm_RLatLon0.09_PT040H.grib2 2026-05-05 14:50 478K
20260505T12Z_MSC_RDPS_UpwardShortwaveRadiationFlux_NTAtm_RLatLon0.09_PT040H.grib2 2026-05-05 14:50 171K
20260505T12Z_MSC_RDPS_VerticalVelocity_IsbL-0250_RLatLon0.09_PT040H.grib2 2026-05-05 14:50 569K
20260505T12Z_MSC_RDPS_VerticalVelocity_IsbL-0500_RLatLon0.09_PT040H.grib2 2026-05-05 14:50 536K
20260505T12Z_MSC_RDPS_VerticalVelocity_IsbL-0700_RLatLon0.09_PT040H.grib2 2026-05-05 14:50 583K
20260505T12Z_MSC_RDPS_VerticalVelocity_IsbL-0850_RLatLon0.09_PT040H.grib2 2026-05-05 14:50 684K
20260505T12Z_MSC_RDPS_VerticalWindShear_EtaL-6500_RLatLon0.09_PT040H.grib2 2026-05-05 14:50 1.1M
20260505T12Z_MSC_RDPS_WindChill_Sfc_RLatLon0.09_PT040H.grib2 2026-05-05 14:50 1.2M
20260505T12Z_MSC_RDPS_WindDir_AGL-10m_RLatLon0.09_PT040H.grib2 2026-05-05 14:50 952K
20260505T12Z_MSC_RDPS_WindDir_AGL-120m_RLatLon0.09_PT040H.grib2 2026-05-05 14:50 589K
20260505T12Z_MSC_RDPS_WindDir_AGL-40m_RLatLon0.09_PT040H.grib2 2026-05-05 14:50 622K
20260505T12Z_MSC_RDPS_WindDir_AGL-80m_RLatLon0.09_PT040H.grib2 2026-05-05 14:50 601K
20260505T12Z_MSC_RDPS_WindDir_IsbL-0001_RLatLon0.09_PT040H.grib2 2026-05-05 14:50 304K
20260505T12Z_MSC_RDPS_WindDir_IsbL-0005_RLatLon0.09_PT040H.grib2 2026-05-05 14:50 369K
20260505T12Z_MSC_RDPS_WindDir_IsbL-0010_RLatLon0.09_PT040H.grib2 2026-05-05 14:50 382K
20260505T12Z_MSC_RDPS_WindDir_IsbL-0020_RLatLon0.09_PT040H.grib2 2026-05-05 14:50 413K
20260505T12Z_MSC_RDPS_WindDir_IsbL-0030_RLatLon0.09_PT040H.grib2 2026-05-05 14:50 415K
20260505T12Z_MSC_RDPS_WindDir_IsbL-0050_RLatLon0.09_PT040H.grib2 2026-05-05 14:50 436K
20260505T12Z_MSC_RDPS_WindDir_IsbL-0100_RLatLon0.09_PT040H.grib2 2026-05-05 14:50 407K
20260505T12Z_MSC_RDPS_WindDir_IsbL-0150_RLatLon0.09_PT040H.grib2 2026-05-05 14:50 408K
20260505T12Z_MSC_RDPS_WindDir_IsbL-0175_RLatLon0.09_PT040H.grib2 2026-05-05 14:50 430K
20260505T12Z_MSC_RDPS_WindDir_IsbL-0200_RLatLon0.09_PT040H.grib2 2026-05-05 14:50 450K
20260505T12Z_MSC_RDPS_WindDir_IsbL-0225_RLatLon0.09_PT040H.grib2 2026-05-05 14:50 456K
20260505T12Z_MSC_RDPS_WindDir_IsbL-0250_RLatLon0.09_PT040H.grib2 2026-05-05 14:50 455K
20260505T12Z_MSC_RDPS_WindDir_IsbL-0275_RLatLon0.09_PT040H.grib2 2026-05-05 14:50 473K
20260505T12Z_MSC_RDPS_WindDir_IsbL-0300_RLatLon0.09_PT040H.grib2 2026-05-05 14:50 466K
20260505T12Z_MSC_RDPS_WindDir_IsbL-0350_RLatLon0.09_PT040H.grib2 2026-05-05 14:50 492K
20260505T12Z_MSC_RDPS_WindDir_IsbL-0400_RLatLon0.09_PT040H.grib2 2026-05-05 14:50 509K
20260505T12Z_MSC_RDPS_WindDir_IsbL-0450_RLatLon0.09_PT040H.grib2 2026-05-05 14:50 524K
20260505T12Z_MSC_RDPS_WindDir_IsbL-0500_RLatLon0.09_PT040H.grib2 2026-05-05 14:50 542K
20260505T12Z_MSC_RDPS_WindDir_IsbL-0550_RLatLon0.09_PT040H.grib2 2026-05-05 14:50 556K
20260505T12Z_MSC_RDPS_WindDir_IsbL-0600_RLatLon0.09_PT040H.grib2 2026-05-05 14:50 583K
20260505T12Z_MSC_RDPS_WindDir_IsbL-0650_RLatLon0.09_PT040H.grib2 2026-05-05 14:50 621K
20260505T12Z_MSC_RDPS_WindDir_IsbL-0700_RLatLon0.09_PT040H.grib2 2026-05-05 14:50 666K
20260505T12Z_MSC_RDPS_WindDir_IsbL-0750_RLatLon0.09_PT040H.grib2 2026-05-05 14:50 719K
20260505T12Z_MSC_RDPS_WindDir_IsbL-0800_RLatLon0.09_PT040H.grib2 2026-05-05 14:50 784K
20260505T12Z_MSC_RDPS_WindDir_IsbL-0850_RLatLon0.09_PT040H.grib2 2026-05-05 14:50 855K
20260505T12Z_MSC_RDPS_WindDir_IsbL-0875_RLatLon0.09_PT040H.grib2 2026-05-05 14:50 881K
20260505T12Z_MSC_RDPS_WindDir_IsbL-0900_RLatLon0.09_PT040H.grib2 2026-05-05 14:50 892K
20260505T12Z_MSC_RDPS_WindDir_IsbL-0925_RLatLon0.09_PT040H.grib2 2026-05-05 14:50 903K
20260505T12Z_MSC_RDPS_WindDir_IsbL-0950_RLatLon0.09_PT040H.grib2 2026-05-05 14:50 903K
20260505T12Z_MSC_RDPS_WindDir_IsbL-0970_RLatLon0.09_PT040H.grib2 2026-05-05 14:50 908K
20260505T12Z_MSC_RDPS_WindDir_IsbL-0985_RLatLon0.09_PT040H.grib2 2026-05-05 14:50 913K
20260505T12Z_MSC_RDPS_WindDir_IsbL-1000_RLatLon0.09_PT040H.grib2 2026-05-05 14:50 926K
20260505T12Z_MSC_RDPS_WindDir_IsbL-1015_RLatLon0.09_PT040H.grib2 2026-05-05 14:50 943K
20260505T12Z_MSC_RDPS_WindGust-Max_AGL-10m_RLatLon0.09_PT040H.grib2 2026-05-05 14:50 1.0M
20260505T12Z_MSC_RDPS_WindGust-Min_AGL-10m_RLatLon0.09_PT040H.grib2 2026-05-05 14:50 963K
20260505T12Z_MSC_RDPS_WindGust_AGL-10m_RLatLon0.09_PT040H.grib2 2026-05-05 14:50 1.0M
20260505T12Z_MSC_RDPS_WindSpeed_AGL-10m_RLatLon0.09_PT040H.grib2 2026-05-05 14:50 829K
20260505T12Z_MSC_RDPS_WindSpeed_AGL-120m_RLatLon0.09_PT040H.grib2 2026-05-05 14:50 532K
20260505T12Z_MSC_RDPS_WindSpeed_AGL-40m_RLatLon0.09_PT040H.grib2 2026-05-05 14:50 535K
20260505T12Z_MSC_RDPS_WindSpeed_AGL-80m_RLatLon0.09_PT040H.grib2 2026-05-05 14:50 533K
20260505T12Z_MSC_RDPS_WindSpeed_IsbL-0001_RLatLon0.09_PT040H.grib2 2026-05-05 14:50 254K
20260505T12Z_MSC_RDPS_WindSpeed_IsbL-0005_RLatLon0.09_PT040H.grib2 2026-05-05 14:50 383K
20260505T12Z_MSC_RDPS_WindSpeed_IsbL-0010_RLatLon0.09_PT040H.grib2 2026-05-05 14:50 398K
20260505T12Z_MSC_RDPS_WindSpeed_IsbL-0020_RLatLon0.09_PT040H.grib2 2026-05-05 14:50 421K
20260505T12Z_MSC_RDPS_WindSpeed_IsbL-0030_RLatLon0.09_PT040H.grib2 2026-05-05 14:50 317K
20260505T12Z_MSC_RDPS_WindSpeed_IsbL-0050_RLatLon0.09_PT040H.grib2 2026-05-05 14:50 347K
20260505T12Z_MSC_RDPS_WindSpeed_IsbL-0100_RLatLon0.09_PT040H.grib2 2026-05-05 14:50 433K
20260505T12Z_MSC_RDPS_WindSpeed_IsbL-0150_RLatLon0.09_PT040H.grib2 2026-05-05 14:50 397K
20260505T12Z_MSC_RDPS_WindSpeed_IsbL-0175_RLatLon0.09_PT040H.grib2 2026-05-05 14:50 420K
20260505T12Z_MSC_RDPS_WindSpeed_IsbL-0200_RLatLon0.09_PT040H.grib2 2026-05-05 14:50 436K
20260505T12Z_MSC_RDPS_WindSpeed_IsbL-0225_RLatLon0.09_PT040H.grib2 2026-05-05 14:50 439K
20260505T12Z_MSC_RDPS_WindSpeed_IsbL-0250_RLatLon0.09_PT040H.grib2 2026-05-05 14:50 438K
20260505T12Z_MSC_RDPS_WindSpeed_IsbL-0275_RLatLon0.09_PT040H.grib2 2026-05-05 14:50 456K
20260505T12Z_MSC_RDPS_WindSpeed_IsbL-0300_RLatLon0.09_PT040H.grib2 2026-05-05 14:50 456K
20260505T12Z_MSC_RDPS_WindSpeed_IsbL-0350_RLatLon0.09_PT040H.grib2 2026-05-05 14:50 470K
20260505T12Z_MSC_RDPS_WindSpeed_IsbL-0400_RLatLon0.09_PT040H.grib2 2026-05-05 14:50 455K
20260505T12Z_MSC_RDPS_WindSpeed_IsbL-0450_RLatLon0.09_PT040H.grib2 2026-05-05 14:50 455K
20260505T12Z_MSC_RDPS_WindSpeed_IsbL-0500_RLatLon0.09_PT040H.grib2 2026-05-05 14:50 454K
20260505T12Z_MSC_RDPS_WindSpeed_IsbL-0550_RLatLon0.09_PT040H.grib2 2026-05-05 14:50 457K
20260505T12Z_MSC_RDPS_WindSpeed_IsbL-0600_RLatLon0.09_PT040H.grib2 2026-05-05 14:50 582K
20260505T12Z_MSC_RDPS_WindSpeed_IsbL-0650_RLatLon0.09_PT040H.grib2 2026-05-05 14:50 603K
20260505T12Z_MSC_RDPS_WindSpeed_IsbL-0700_RLatLon0.09_PT040H.grib2 2026-05-05 14:50 672K
20260505T12Z_MSC_RDPS_WindSpeed_IsbL-0750_RLatLon0.09_PT040H.grib2 2026-05-05 14:50 703K
20260505T12Z_MSC_RDPS_WindSpeed_IsbL-0800_RLatLon0.09_PT040H.grib2 2026-05-05 14:50 753K
20260505T12Z_MSC_RDPS_WindSpeed_IsbL-0850_RLatLon0.09_PT040H.grib2 2026-05-05 14:50 814K
20260505T12Z_MSC_RDPS_WindSpeed_IsbL-0875_RLatLon0.09_PT040H.grib2 2026-05-05 14:50 836K
20260505T12Z_MSC_RDPS_WindSpeed_IsbL-0900_RLatLon0.09_PT040H.grib2 2026-05-05 14:50 850K
20260505T12Z_MSC_RDPS_WindSpeed_IsbL-0925_RLatLon0.09_PT040H.grib2 2026-05-05 14:50 863K
20260505T12Z_MSC_RDPS_WindSpeed_IsbL-0950_RLatLon0.09_PT040H.grib2 2026-05-05 14:50 864K
20260505T12Z_MSC_RDPS_WindSpeed_IsbL-0970_RLatLon0.09_PT040H.grib2 2026-05-05 14:50 858K
20260505T12Z_MSC_RDPS_WindSpeed_IsbL-0985_RLatLon0.09_PT040H.grib2 2026-05-05 14:50 848K
20260505T12Z_MSC_RDPS_WindSpeed_IsbL-1000_RLatLon0.09_PT040H.grib2 2026-05-05 14:50 840K
20260505T12Z_MSC_RDPS_WindSpeed_IsbL-1015_RLatLon0.09_PT040H.grib2 2026-05-05 14:50 829K
20260505T12Z_MSC_RDPS_WindU_AGL-10m_RLatLon0.09_PT040H.grib2 2026-05-05 14:50 427K
20260505T12Z_MSC_RDPS_WindU_AGL-120m_RLatLon0.09_PT040H.grib2 2026-05-05 14:50 530K
20260505T12Z_MSC_RDPS_WindU_AGL-40m_RLatLon0.09_PT040H.grib2 2026-05-05 14:50 533K
20260505T12Z_MSC_RDPS_WindU_AGL-80m_RLatLon0.09_PT040H.grib2 2026-05-05 14:50 531K
20260505T12Z_MSC_RDPS_WindU_IsbL-0001_RLatLon0.09_PT040H.grib2 2026-05-05 14:50 244K
20260505T12Z_MSC_RDPS_WindU_IsbL-0005_RLatLon0.09_PT040H.grib2 2026-05-05 14:50 285K
20260505T12Z_MSC_RDPS_WindU_IsbL-0010_RLatLon0.09_PT040H.grib2 2026-05-05 14:50 298K
20260505T12Z_MSC_RDPS_WindU_IsbL-0020_RLatLon0.09_PT040H.grib2 2026-05-05 14:50 315K
20260505T12Z_MSC_RDPS_WindU_IsbL-0030_RLatLon0.09_PT040H.grib2 2026-05-05 14:50 351K
20260505T12Z_MSC_RDPS_WindU_IsbL-0050_RLatLon0.09_PT040H.grib2 2026-05-05 14:50 378K
20260505T12Z_MSC_RDPS_WindU_IsbL-0100_RLatLon0.09_PT040H.grib2 2026-05-05 14:50 331K
20260505T12Z_MSC_RDPS_WindU_IsbL-0150_RLatLon0.09_PT040H.grib2 2026-05-05 14:50 391K
20260505T12Z_MSC_RDPS_WindU_IsbL-0175_RLatLon0.09_PT040H.grib2 2026-05-05 14:50 413K
20260505T12Z_MSC_RDPS_WindU_IsbL-0200_RLatLon0.09_PT040H.grib2 2026-05-05 14:50 333K
20260505T12Z_MSC_RDPS_WindU_IsbL-0225_RLatLon0.09_PT040H.grib2 2026-05-05 14:50 334K
20260505T12Z_MSC_RDPS_WindU_IsbL-0250_RLatLon0.09_PT040H.grib2 2026-05-05 14:50 333K
20260505T12Z_MSC_RDPS_WindU_IsbL-0275_RLatLon0.09_PT040H.grib2 2026-05-05 14:50 346K
20260505T12Z_MSC_RDPS_WindU_IsbL-0300_RLatLon0.09_PT040H.grib2 2026-05-05 14:50 344K
20260505T12Z_MSC_RDPS_WindU_IsbL-0350_RLatLon0.09_PT040H.grib2 2026-05-05 14:50 355K
20260505T12Z_MSC_RDPS_WindU_IsbL-0400_RLatLon0.09_PT040H.grib2 2026-05-05 14:50 359K
20260505T12Z_MSC_RDPS_WindU_IsbL-0450_RLatLon0.09_PT040H.grib2 2026-05-05 14:50 462K
20260505T12Z_MSC_RDPS_WindU_IsbL-0500_RLatLon0.09_PT040H.grib2 2026-05-05 14:50 461K
20260505T12Z_MSC_RDPS_WindU_IsbL-0550_RLatLon0.09_PT040H.grib2 2026-05-05 14:50 464K
20260505T12Z_MSC_RDPS_WindU_IsbL-0600_RLatLon0.09_PT040H.grib2 2026-05-05 14:50 471K
20260505T12Z_MSC_RDPS_WindU_IsbL-0650_RLatLon0.09_PT040H.grib2 2026-05-05 14:50 490K
20260505T12Z_MSC_RDPS_WindU_IsbL-0700_RLatLon0.09_PT040H.grib2 2026-05-05 14:50 512K
20260505T12Z_MSC_RDPS_WindU_IsbL-0750_RLatLon0.09_PT040H.grib2 2026-05-05 14:50 539K
20260505T12Z_MSC_RDPS_WindU_IsbL-0800_RLatLon0.09_PT040H.grib2 2026-05-05 14:50 580K
20260505T12Z_MSC_RDPS_WindU_IsbL-0850_RLatLon0.09_PT040H.grib2 2026-05-05 14:50 631K
20260505T12Z_MSC_RDPS_WindU_IsbL-0875_RLatLon0.09_PT040H.grib2 2026-05-05 14:50 648K
20260505T12Z_MSC_RDPS_WindU_IsbL-0900_RLatLon0.09_PT040H.grib2 2026-05-05 14:50 650K
20260505T12Z_MSC_RDPS_WindU_IsbL-0925_RLatLon0.09_PT040H.grib2 2026-05-05 14:50 660K
20260505T12Z_MSC_RDPS_WindU_IsbL-0950_RLatLon0.09_PT040H.grib2 2026-05-05 14:50 657K
20260505T12Z_MSC_RDPS_WindU_IsbL-0970_RLatLon0.09_PT040H.grib2 2026-05-05 14:50 652K
20260505T12Z_MSC_RDPS_WindU_IsbL-0985_RLatLon0.09_PT040H.grib2 2026-05-05 14:50 645K
20260505T12Z_MSC_RDPS_WindU_IsbL-1000_RLatLon0.09_PT040H.grib2 2026-05-05 14:50 777K
20260505T12Z_MSC_RDPS_WindU_IsbL-1015_RLatLon0.09_PT040H.grib2 2026-05-05 14:50 770K
20260505T12Z_MSC_RDPS_WindV_AGL-10m_RLatLon0.09_PT040H.grib2 2026-05-05 14:50 425K
20260505T12Z_MSC_RDPS_WindV_AGL-120m_RLatLon0.09_PT040H.grib2 2026-05-05 14:50 412K
20260505T12Z_MSC_RDPS_WindV_AGL-40m_RLatLon0.09_PT040H.grib2 2026-05-05 14:50 530K
20260505T12Z_MSC_RDPS_WindV_AGL-80m_RLatLon0.09_PT040H.grib2 2026-05-05 14:50 529K
20260505T12Z_MSC_RDPS_WindV_IsbL-0001_RLatLon0.09_PT040H.grib2 2026-05-05 14:50 295K
20260505T12Z_MSC_RDPS_WindV_IsbL-0005_RLatLon0.09_PT040H.grib2 2026-05-05 14:50 288K
20260505T12Z_MSC_RDPS_WindV_IsbL-0010_RLatLon0.09_PT040H.grib2 2026-05-05 14:50 298K
20260505T12Z_MSC_RDPS_WindV_IsbL-0020_RLatLon0.09_PT040H.grib2 2026-05-05 14:50 318K
20260505T12Z_MSC_RDPS_WindV_IsbL-0030_RLatLon0.09_PT040H.grib2 2026-05-05 14:50 314K
20260505T12Z_MSC_RDPS_WindV_IsbL-0050_RLatLon0.09_PT040H.grib2 2026-05-05 14:50 341K
20260505T12Z_MSC_RDPS_WindV_IsbL-0100_RLatLon0.09_PT040H.grib2 2026-05-05 14:50 422K
20260505T12Z_MSC_RDPS_WindV_IsbL-0150_RLatLon0.09_PT040H.grib2 2026-05-05 14:50 387K
20260505T12Z_MSC_RDPS_WindV_IsbL-0175_RLatLon0.09_PT040H.grib2 2026-05-05 14:50 412K
20260505T12Z_MSC_RDPS_WindV_IsbL-0200_RLatLon0.09_PT040H.grib2 2026-05-05 14:50 332K
20260505T12Z_MSC_RDPS_WindV_IsbL-0225_RLatLon0.09_PT040H.grib2 2026-05-05 14:50 333K
20260505T12Z_MSC_RDPS_WindV_IsbL-0250_RLatLon0.09_PT040H.grib2 2026-05-05 14:50 332K
20260505T12Z_MSC_RDPS_WindV_IsbL-0275_RLatLon0.09_PT040H.grib2 2026-05-05 14:50 346K
20260505T12Z_MSC_RDPS_WindV_IsbL-0300_RLatLon0.09_PT040H.grib2 2026-05-05 14:50 344K
20260505T12Z_MSC_RDPS_WindV_IsbL-0350_RLatLon0.09_PT040H.grib2 2026-05-05 14:50 355K
20260505T12Z_MSC_RDPS_WindV_IsbL-0400_RLatLon0.09_PT040H.grib2 2026-05-05 14:50 357K
20260505T12Z_MSC_RDPS_WindV_IsbL-0450_RLatLon0.09_PT040H.grib2 2026-05-05 14:50 358K
20260505T12Z_MSC_RDPS_WindV_IsbL-0500_RLatLon0.09_PT040H.grib2 2026-05-05 14:50 459K
20260505T12Z_MSC_RDPS_WindV_IsbL-0550_RLatLon0.09_PT040H.grib2 2026-05-05 14:50 461K
20260505T12Z_MSC_RDPS_WindV_IsbL-0600_RLatLon0.09_PT040H.grib2 2026-05-05 14:50 468K
20260505T12Z_MSC_RDPS_WindV_IsbL-0650_RLatLon0.09_PT040H.grib2 2026-05-05 14:50 487K
20260505T12Z_MSC_RDPS_WindV_IsbL-0700_RLatLon0.09_PT040H.grib2 2026-05-05 14:50 509K
20260505T12Z_MSC_RDPS_WindV_IsbL-0750_RLatLon0.09_PT040H.grib2 2026-05-05 14:50 535K
20260505T12Z_MSC_RDPS_WindV_IsbL-0800_RLatLon0.09_PT040H.grib2 2026-05-05 14:50 563K
20260505T12Z_MSC_RDPS_WindV_IsbL-0850_RLatLon0.09_PT040H.grib2 2026-05-05 14:50 615K
20260505T12Z_MSC_RDPS_WindV_IsbL-0875_RLatLon0.09_PT040H.grib2 2026-05-05 14:50 636K
20260505T12Z_MSC_RDPS_WindV_IsbL-0900_RLatLon0.09_PT040H.grib2 2026-05-05 14:50 647K
20260505T12Z_MSC_RDPS_WindV_IsbL-0925_RLatLon0.09_PT040H.grib2 2026-05-05 14:50 656K
20260505T12Z_MSC_RDPS_WindV_IsbL-0950_RLatLon0.09_PT040H.grib2 2026-05-05 14:50 655K
20260505T12Z_MSC_RDPS_WindV_IsbL-0970_RLatLon0.09_PT040H.grib2 2026-05-05 14:50 651K
20260505T12Z_MSC_RDPS_WindV_IsbL-0985_RLatLon0.09_PT040H.grib2 2026-05-05 14:50 643K
20260505T12Z_MSC_RDPS_WindV_IsbL-1000_RLatLon0.09_PT040H.grib2 2026-05-05 14:50 774K
20260505T12Z_MSC_RDPS_WindV_IsbL-1015_RLatLon0.09_PT040H.grib2 2026-05-05 14:50 766K